English version Home page |
Updated on January 7, 2012 |
|
軌道要素Epoch 2011 Aug. 27.0 TT = JDT 2455800.5 T 2011 Sept. 10.72638 TT MPC q 0.4825036 (2000.0) P Q z +0.0000224 Peri. 343.80825 +0.60234978 +0.79800100 +/-0.0000014 Node 323.22395 -0.72875805 +0.53994352 e 0.9999892 Incl. 1.83906 -0.32570915 +0.26768525 From 1896 observations 2010 Dec. 10-2011 Sept. 7, mean residual 0".5.
|
星図
|
光度変化m1 = 8.5 + 5 logΔ + 12.5 log r [ ,-26] ( 〜2011年 8月15日) m1 = 9.5 + 5 logΔ + 18.0 log r(t + 50) [-26, ] (2011年 8月15日〜 ) ※ 灰色の曲線は、m1 = 8.5 + 5 logΔ + 12.5 log r の光度曲線です。
|
軌道要素はM.P.E.C. 2011-R35に掲載されたものです。
|